• In Belarus
  • List of Countries
  • For 7 days
  • Water Temperature
  • Satellite Maps
  • Weather Map
  • Weather Widgets
  • user-avatar
    Login

    Hourly Weather Chhata

    Today, 21 November, Wednesday

    Time Temperature Precipitation Wind Pressure Humidity
    00:00 +23°C° 0 mm 1 mps 745 mmHg 40%
    01:00 +22°C° 0 mm 1 mps 745 mmHg 40%
    02:00 +21°C° 0 mm 2 mps 745 mmHg 41%
    03:00 +21°C° 0 mm 2 mps 745 mmHg 41%
    04:00 +21°C° 0 mm 1 mps 745 mmHg 42%
    05:00 +21°C° 0 mm 1 mps 745 mmHg 45%
    06:00 +21°C° 0 mm 1 mps 746 mmHg 43%
    07:00 +22°C° 0 mm 1 mps 746 mmHg 42%
    08:00 +23°C° 0 mm 2 mps 746 mmHg 40%
    09:00 +25°C° 0 mm 2 mps 746 mmHg 35%
    10:00 +27°C° 0 mm 2 mps 746 mmHg 30%
    11:00 +30°C° 0 mm 2 mps 747 mmHg 26%
    12:00 +30°C° 0 mm 2 mps 746 mmHg 24%
    13:00 +31°C° 0 mm 2 mps 745 mmHg 21%
    14:00 +31°C° 0 mm 2 mps 744 mmHg 19%
    15:00 +30°C° 0 mm 2 mps 744 mmHg 21%
    16:00 +28°C° 0 mm 2 mps 744 mmHg 23%
    17:00 +27°C° 0 mm 1 mps 744 mmHg 25%
    18:00 +26°C° 0 mm 1 mps 744 mmHg 26%
    19:00 +25°C° 0 mm 1 mps 745 mmHg 27%
    20:00 +24°C° 0 mm 1 mps 745 mmHg 28%
    21:00 +24°C° 0 mm 1 mps 745 mmHg 29%
    22:00 +23°C° 0 mm 1 mps 745 mmHg 29%
    23:00 +21°C° 0 mm 0 mps 745 mmHg 30%

    Tomorrow, 22 November, Thursday

    Time Temperature Precipitation Wind Pressure Humidity
    00:00 +23°C° 0 mm 1 mps 745 mmHg 31%
    01:00 +22°C° 0 mm 1 mps 745 mmHg 32%
    02:00 +22°C° 0 mm 1 mps 745 mmHg 32%
    03:00 +21°C° 0 mm 1 mps 745 mmHg 33%
    04:00 +21°C° 0 mm 1 mps 745 mmHg 33%
    05:00 +21°C° 0 mm 1 mps 745 mmHg 34%
    06:00 +22°C° 0 mm 1 mps 746 mmHg 33%
    07:00 +23°C° 0 mm 1 mps 746 mmHg 32%
    08:00 +24°C° 0 mm 1 mps 746 mmHg 31%
    09:00 +25°C° 0 mm 1 mps 747 mmHg 28%
    10:00 +25°C° 0 mm 0 mps 747 mmHg 25%
    11:00 +27°C° 0 mm 0 mps 747 mmHg 22%
    12:00 +30°C° 0 mm 1 mps 746 mmHg 21%
    13:00 +30°C° 0 mm 1 mps 746 mmHg 20%
    14:00 +31°C° 0 mm 1 mps 745 mmHg 19%
    15:00 +30°C° 0 mm 1 mps 745 mmHg 21%
    16:00 +28°C° 0 mm 1 mps 745 mmHg 23%
    17:00 +27°C° 0 mm 1 mps 744 mmHg 25%
    18:00 +26°C° 0 mm 1 mps 745 mmHg 26%
    19:00 +26°C° 0 mm 1 mps 746 mmHg 26%
    20:00 +25°C° 0 mm 1 mps 746 mmHg 27%
    21:00 +24°C° 0 mm 1 mps 746 mmHg 28%
    22:00 +24°C° 0 mm 1 mps 747 mmHg 29%
    23:00 +23°C° 0 mm 1 mps 747 mmHg 29%

    Day after tomorrow, 23 November, Friday

    Time Temperature Precipitation Wind Pressure Humidity
    00:00 +23°C° 0 mm 1 mps 747 mmHg 30%
    01:00 +23°C° 0 mm 1 mps 747 mmHg 30%
    02:00 +22°C° 0 mm 1 mps 747 mmHg 31%
    03:00 +22°C° 0 mm 1 mps 746 mmHg 31%
    04:00 +21°C° 0 mm 1 mps 746 mmHg 32%
    05:00 +20°C° 0 mm 2 mps 746 mmHg 33%
    06:00 +21°C° 0 mm 2 mps 747 mmHg 32%
    07:00 +21°C° 0 mm 2 mps 747 mmHg 32%
    08:00 +23°C° 0 mm 2 mps 748 mmHg 32%
    09:00 +25°C° 0 mm 3 mps 748 mmHg 28%
    10:00 +27°C° 0 mm 4 mps 748 mmHg 23%
    11:00 +30°C° 0 mm 5 mps 748 mmHg 19%
    12:00 +30°C° 0 mm 5 mps 747 mmHg 18%
    13:00 +32°C° 0 mm 5 mps 746 mmHg 17%
    14:00 +32°C° 0 mm 6 mps 746 mmHg 16%
    15:00 +29°C° 0 mm 5 mps 745 mmHg 19%
    16:00 +28°C° 0 mm 4 mps 745 mmHg 21%
    17:00 +26°C° 0 mm 3 mps 745 mmHg 24%
    18:00 +25°C° 0 mm 3 mps 745 mmHg 24%
    19:00 +25°C° 0 mm 3 mps 746 mmHg 25%
    20:00 +24°C° 0 mm 3 mps 746 mmHg 26%
    21:00 +22°C° 0 mm 3 mps 746 mmHg 27%
    22:00 +22°C° 0 mm 3 mps 746 mmHg 28%
    23:00 +21°C° 0 mm 3 mps 746 mmHg 28%

    24 November, Saturday

    Time Temperature Precipitation Wind Pressure Humidity
    00:00 +21°C° 0 mm 3 mps 746 mmHg 29%
    01:00 +20°C° 0 mm 3 mps 745 mmHg 30%
    02:00 +20°C° 0 mm 3 mps 745 mmHg 31%
    03:00 +19°C° 0 mm 3 mps 745 mmHg 31%
    04:00 +19°C° 0 mm 4 mps 745 mmHg 32%
    05:00 +19°C° 0 mm 4 mps 744 mmHg 32%
    06:00 +19°C° 0 mm 4 mps 745 mmHg 31%
    07:00 +20°C° 0 mm 4 mps 746 mmHg 30%
    08:00 +20°C° 0 mm 4 mps 746 mmHg 30%
    09:00 +23°C° 0 mm 5 mps 746 mmHg 26%
    10:00 +26°C° 0 mm 5 mps 746 mmHg 23%
    11:00 +28°C° 0 mm 5 mps 746 mmHg 20%
    12:00 +29°C° 0 mm 5 mps 746 mmHg 19%
    13:00 +29°C° 0 mm 5 mps 745 mmHg 18%
    14:00 +30°C° 0 mm 5 mps 744 mmHg 17%
    15:00 +29°C° 0 mm 4 mps 744 mmHg 19%
    16:00 +27°C° 0 mm 3 mps 744 mmHg 21%
    17:00 +25°C° 0 mm 2 mps 744 mmHg 23%
    18:00 +25°C° 0 mm 2 mps 744 mmHg 23%
    19:00 +24°C° 0 mm 2 mps 745 mmHg 23%
    20:00 +23°C° 0 mm 2 mps 745 mmHg 23%
    21:00 +21°C° 0 mm 2 mps 745 mmHg 24%
    22:00 +21°C° 0 mm 2 mps 745 mmHg 24%
    23:00 +21°C° 0 mm 2 mps 745 mmHg 24%

    25 November, Sunday

    Time Temperature Precipitation Wind Pressure Humidity
    00:00 +20°C° 0 mm 2 mps 745 mmHg 25%
    01:00 +20°C° 0 mm 2 mps 745 mmHg 26%
    02:00 +19°C° 0 mm 2 mps 745 mmHg 27%
    03:00 +19°C° 0 mm 2 mps 745 mmHg 28%
    04:00 +19°C° 0 mm 2 mps 745 mmHg 29%
    05:00 +18°C° 0 mm 2 mps 745 mmHg 30%
    06:00 +20°C° 0 mm 1 mps 745 mmHg 30%
    07:00 +21°C° 0 mm 1 mps 746 mmHg 31%
    08:00 +22°C° 0 mm 1 mps 746 mmHg 31%
    09:00 +24°C° 0 mm 1 mps 746 mmHg 27%
    10:00 +26°C° 0 mm 2 mps 746 mmHg 24%
    11:00 +28°C° 0 mm 2 mps 746 mmHg 20%
    12:00 +29°C° 0 mm 2 mps 745 mmHg 19%
    13:00 +30°C° 0 mm 2 mps 744 mmHg 18%
    14:00 +30°C° 0 mm 2 mps 744 mmHg 16%
    15:00 +29°C° 0 mm 2 mps 744 mmHg 18%
    16:00 +27°C° 0 mm 1 mps 744 mmHg 20%
    17:00 +26°C° 0 mm 1 mps 743 mmHg 22%
    18:00 +25°C° 0 mm 1 mps 744 mmHg 23%
    19:00 +24°C° 0 mm 1 mps 744 mmHg 23%
    20:00 +23°C° 0 mm 1 mps 745 mmHg 24%
    21:00 +23°C° 0 mm 1 mps 745 mmHg 25%
    22:00 +22°C° 0 mm 1 mps 745 mmHg 26%
    23:00 +19°C° 0 mm 0 mps 745 mmHg 27%

    26 November, Monday

    Time Temperature Precipitation Wind Pressure Humidity
    00:00 +19°C° 0 mm 0 mps 745 mmHg 28%
    01:00 +19°C° 0 mm 0 mps 745 mmHg 29%
    02:00 +18°C° 0 mm 0 mps 744 mmHg 29%
    03:00 +18°C° 0 mm 0 mps 744 mmHg 30%
    04:00 +17°C° 0 mm 0 mps 744 mmHg 31%
    05:00 +17°C° 0 mm 0 mps 744 mmHg 31%
    06:00 +18°C° 0 mm 0 mps 745 mmHg 30%
    07:00 +19°C° 0 mm 0 mps 745 mmHg 30%
    08:00 +20°C° 0 mm 0 mps 746 mmHg 29%
    09:00 +22°C° 0 mm 0 mps 746 mmHg 26%
    10:00 +24°C° 0 mm 0 mps 746 mmHg 23%
    11:00 +26°C° 0 mm 0 mps 746 mmHg 21%
    12:00 +29°C° 0 mm 1 mps 745 mmHg 19%
    13:00 +29°C° 0 mm 1 mps 744 mmHg 18%
    14:00 +30°C° 0 mm 2 mps 743 mmHg 17%
    15:00 +29°C° 0 mm 1 mps 743 mmHg 19%
    16:00 +27°C° 0 mm 1 mps 743 mmHg 21%
    17:00 +26°C° 0 mm 1 mps 743 mmHg 23%
    18:00 +25°C° 0 mm 1 mps 744 mmHg 24%
    19:00 +24°C° 0 mm 1 mps 744 mmHg 25%
    20:00 +23°C° 0 mm 1 mps 745 mmHg 26%
    21:00 +23°C° 0 mm 1 mps 745 mmHg 27%
    22:00 +20°C° 0 mm 0 mps 745 mmHg 28%
    23:00 +20°C° 0 mm 0 mps 745 mmHg 29%
    Show more